#Datum;Uhrzeit;WR;Pac;DaySum;Status;WR;Pac;DaySum;Status;Pdc1;Udc;Temp;WR;Pac;DaySum;Status;Pdc1;Udc;Temp;WR;Pac;DaySum;Status;Pdc1;Udc;Temp;WR;Pac;DaySum;Status;Pdc1;Pdc2;Udc1;Udc2;Temp;WR;Pac;DaySum;Status;Pdc1;Pdc2;Udc1;Udc2;Temp;WR;Pac;DaySum;Status;Pdc1;Udc;Temp;WR;Pac;DaySum;Status;Pdc1;Udc;Temp;WR;Pac;DaySum;Status;Pdc1;Udc;Temp
22.11.17;23:55:00;1;472;9054;0;2;0;14292;0;0;0;0;3;0;9433;0;0;0;0;4;0;11170;0;0;0;0;5;0;34959;0;0;0;0;0;0;6;0;26537;0;0;0;0;0;0;7;0;24631;0;0;0;0;8;0;24134;0;0;0;0;9;0;13086;0;0;0;0
22.11.17;23:50:00;1;479;9015;0;2;0;14292;0;0;0;0;3;0;9433;0;0;0;0;4;0;11170;0;0;0;0;5;0;34959;0;0;0;0;0;0;6;0;26537;0;0;0;0;0;0;7;0;24631;0;0;0;0;8;0;24134;0;0;0;0;9;0;13086;0;0;0;0
22.11.17;23:45:00;1;473;8975;0;2;0;14292;0;0;0;0;3;0;9433;0;0;0;0;4;0;11170;0;0;0;0;5;0;34959;0;0;0;0;0;0;6;0;26537;0;0;0;0;0;0;7;0;24631;0;0;0;0;8;0;24134;0;0;0;0;9;0;13086;0;0;0;0
22.11.17;23:40:00;1;473;8936;0;2;0;14292;0;0;0;0;3;0;9433;0;0;0;0;4;0;11170;0;0;0;0;5;0;34959;0;0;0;0;0;0;6;0;26537;0;0;0;0;0;0;7;0;24631;0;0;0;0;8;0;24134;0;0;0;0;9;0;13086;0;0;0;0
22.11.17;23:35:00;1;441;8896;0;2;0;14292;0;0;0;0;3;0;9433;0;0;0;0;4;0;11170;0;0;0;0;5;0;34959;0;0;0;0;0;0;6;0;26537;0;0;0;0;0;0;7;0;24631;0;0;0;0;8;0;24134;0;0;0;0;9;0;13086;0;0;0;0
22.11.17;23:30:00;1;446;8858;0;2;0;14292;0;0;0;0;3;0;9433;0;0;0;0;4;0;11170;0;0;0;0;5;0;34959;0;0;0;0;0;0;6;0;26537;0;0;0;0;0;0;7;0;24631;0;0;0;0;8;0;24134;0;0;0;0;9;0;13086;0;0;0;0
22.11.17;23:25:00;1;456;8821;0;2;0;14292;0;0;0;0;3;0;9433;0;0;0;0;4;0;11170;0;0;0;0;5;0;34959;0;0;0;0;0;0;6;0;26537;0;0;0;0;0;0;7;0;24631;0;0;0;0;8;0;24134;0;0;0;0;9;0;13086;0;0;0;0
22.11.17;23:20:00;1;419;8783;0;2;0;14292;0;0;0;0;3;0;9433;0;0;0;0;4;0;11170;0;0;0;0;5;0;34959;0;0;0;0;0;0;6;0;26537;0;0;0;0;0;0;7;0;24631;0;0;0;0;8;0;24134;0;0;0;0;9;0;13086;0;0;0;0
22.11.17;23:15:00;1;404;8747;0;2;0;14292;0;0;0;0;3;0;9433;0;0;0;0;4;0;11170;0;0;0;0;5;0;34959;0;0;0;0;0;0;6;0;26537;0;0;0;0;0;0;7;0;24631;0;0;0;0;8;0;24134;0;0;0;0;9;0;13086;0;0;0;0
22.11.17;23:10:00;1;405;8713;0;2;0;14292;0;0;0;0;3;0;9433;0;0;0;0;4;0;11170;0;0;0;0;5;0;34959;0;0;0;0;0;0;6;0;26537;0;0;0;0;0;0;7;0;24631;0;0;0;0;8;0;24134;0;0;0;0;9;0;13086;0;0;0;0
22.11.17;23:05:00;1;404;8679;0;2;0;14292;0;0;0;0;3;0;9433;0;0;0;0;4;0;11170;0;0;0;0;5;0;34959;0;0;0;0;0;0;6;0;26537;0;0;0;0;0;0;7;0;24631;0;0;0;0;8;0;24134;0;0;0;0;9;0;13086;0;0;0;0
22.11.17;23:00:00;1;427;8646;0;2;0;14292;0;0;0;0;3;0;9433;0;0;0;0;4;0;11170;0;0;0;0;5;0;34959;0;0;0;0;0;0;6;0;26537;0;0;0;0;0;0;7;0;24631;0;0;0;0;8;0;24134;0;0;0;0;9;0;13086;0;0;0;0
22.11.17;22:55:00;1;434;8609;0;2;0;14292;0;0;0;0;3;0;9433;0;0;0;0;4;0;11170;0;0;0;0;5;0;34959;2;0;0;0;0;0;6;0;26537;2;0;0;0;0;0;7;0;24631;0;0;0;0;8;0;24134;0;0;0;0;9;0;13086;0;0;0;0
22.11.17;22:50:00;1;438;8573;0;2;0;14292;0;0;0;0;3;0;9433;0;0;0;0;4;0;11170;0;0;0;0;5;0;34959;2;0;0;0;0;0;6;0;26537;2;0;0;0;0;0;7;0;24631;0;0;0;0;8;0;24134;0;0;0;0;9;0;13086;0;0;0;0
22.11.17;22:45:00;1;462;8537;0;2;0;14292;0;0;0;0;3;0;9433;0;0;0;0;4;0;11170;0;0;0;0;5;0;34959;2;0;0;0;0;0;6;0;26537;2;0;0;0;0;0;7;0;24631;0;0;0;0;8;0;24134;0;0;0;0;9;0;13086;0;0;0;0
22.11.17;22:40:00;1;464;8498;0;2;0;14292;0;0;0;0;3;0;9433;0;0;0;0;4;0;11170;0;0;0;0;5;0;34959;2;0;0;0;0;0;6;0;26537;2;0;0;0;0;0;7;0;24631;0;0;0;0;8;0;24134;0;0;0;0;9;0;13086;0;0;0;0
22.11.17;22:35:00;1;501;8459;0;2;0;14292;0;0;0;0;3;0;9433;0;0;0;0;4;0;11170;0;0;0;0;5;0;34959;2;0;0;0;0;0;6;0;26537;2;0;0;0;0;0;7;0;24631;0;0;0;0;8;0;24134;0;0;0;0;9;0;13086;0;0;0;0
22.11.17;22:30:00;1;508;8417;0;2;0;14292;0;0;0;0;3;0;9433;0;0;0;0;4;0;11170;0;0;0;0;5;0;34959;2;0;0;0;0;0;6;0;26537;2;0;0;0;0;0;7;0;24631;0;0;0;0;8;0;24134;0;0;0;0;9;0;13086;0;0;0;0
22.11.17;22:25:00;1;505;8375;0;2;0;14292;0;0;0;0;3;0;9433;0;0;0;0;4;0;11170;0;0;0;0;5;0;34959;2;0;0;0;0;0;6;0;26537;2;0;0;0;0;0;7;0;24631;0;0;0;0;8;0;24134;0;0;0;0;9;0;13086;0;0;0;0
22.11.17;22:20:00;1;473;8332;0;2;0;14292;0;0;0;0;3;0;9433;0;0;0;0;4;0;11170;0;0;0;0;5;0;34959;2;0;0;0;0;0;6;0;26537;2;0;0;0;0;0;7;0;24631;0;0;0;0;8;0;24134;0;0;0;0;9;0;13086;0;0;0;0
22.11.17;22:15:00;1;495;8293;0;2;0;14292;0;0;0;0;3;0;9433;0;0;0;0;4;0;11170;0;0;0;0;5;0;34959;2;0;0;0;0;0;6;0;26537;2;0;0;0;0;0;7;0;24631;0;0;0;0;8;0;24134;0;0;0;0;9;0;13086;0;0;0;0
22.11.17;22:10:00;1;543;8251;0;2;0;14292;0;0;0;0;3;0;9433;0;0;0;0;4;0;11170;0;0;0;0;5;0;34959;2;0;0;0;0;0;6;0;26537;2;0;0;0;0;0;7;0;24631;0;0;0;0;8;0;24134;0;0;0;0;9;0;13086;0;0;0;0
22.11.17;22:05:00;1;546;8205;0;2;0;14292;0;0;0;0;3;0;9433;0;0;0;0;4;0;11170;0;0;0;0;5;0;34959;2;0;0;0;0;0;6;0;26537;2;0;0;0;0;0;7;0;24631;0;0;0;0;8;0;24134;0;0;0;0;9;0;13086;0;0;0;0
22.11.17;22:00:00;1;1496;8159;0;2;0;14292;0;0;0;0;3;0;9433;0;0;0;0;4;0;11170;0;0;0;0;5;0;34959;2;0;0;0;0;0;6;0;26537;2;0;0;0;0;0;7;0;24631;0;0;0;0;8;0;24134;0;0;0;0;9;0;13086;0;0;0;0
22.11.17;21:55:00;1;539;8049;0;2;0;14292;0;0;0;0;3;0;9433;0;0;0;0;4;0;11170;0;0;0;0;5;0;34959;2;0;0;0;0;0;6;0;26537;2;0;0;0;0;0;7;0;24631;0;0;0;0;8;0;24134;0;0;0;0;9;0;13086;0;0;0;0
22.11.17;21:50:00;1;515;8003;0;2;0;14292;0;0;0;0;3;0;9433;0;0;0;0;4;0;11170;0;0;0;0;5;0;34959;2;0;0;0;0;0;6;0;26537;2;0;0;0;0;0;7;0;24631;0;0;0;0;8;0;24134;0;0;0;0;9;0;13086;0;0;0;0
22.11.17;21:45:00;1;501;7961;0;2;0;14292;0;0;0;0;3;0;9433;0;0;0;0;4;0;11170;0;0;0;0;5;0;34959;2;0;0;0;0;0;6;0;26537;2;0;0;0;0;0;7;0;24631;0;0;0;0;8;0;24134;0;0;0;0;9;0;13086;0;0;0;0
22.11.17;21:40:00;1;531;7919;0;2;0;14292;0;0;0;0;3;0;9433;0;0;0;0;4;0;11170;0;0;0;0;5;0;34959;2;0;0;0;0;0;6;0;26537;2;0;0;0;0;0;7;0;24631;0;0;0;0;8;0;24134;0;0;0;0;9;0;13086;0;0;0;0
22.11.17;21:35:00;1;553;7875;0;2;0;14292;0;0;0;0;3;0;9433;0;0;0;0;4;0;11170;0;0;0;0;5;0;34959;2;0;0;0;0;0;6;0;26537;2;0;0;0;0;0;7;0;24631;0;0;0;0;8;0;24134;0;0;0;0;9;0;13086;0;0;0;0
22.11.17;21:30:00;1;587;7828;0;2;0;14292;0;0;0;0;3;0;9433;0;0;0;0;4;0;11170;0;0;0;0;5;0;34959;2;0;0;0;0;0;6;0;26537;2;0;0;0;0;0;7;0;24631;0;0;0;0;8;0;24134;0;0;0;0;9;0;13086;0;0;0;0
22.11.17;21:25:00;1;543;7779;0;2;0;14292;0;0;0;0;3;0;9433;0;0;0;0;4;0;11170;0;0;0;0;5;0;34959;2;0;0;0;0;0;6;0;26537;2;0;0;0;0;0;7;0;24631;0;0;0;0;8;0;24134;0;0;0;0;9;0;13086;0;0;0;0
22.11.17;21:20:00;1;513;7734;0;2;0;14292;0;0;0;0;3;0;9433;0;0;0;0;4;0;11170;0;0;0;0;5;0;34959;2;0;0;0;0;0;6;0;26537;2;0;0;0;0;0;7;0;24631;0;0;0;0;8;0;24134;0;0;0;0;9;0;13086;0;0;0;0
22.11.17;21:15:00;1;518;7692;0;2;0;14292;0;0;0;0;3;0;9433;0;0;0;0;4;0;11170;0;0;0;0;5;0;34959;2;0;0;0;0;0;6;0;26537;2;0;0;0;0;0;7;0;24631;0;0;0;0;8;0;24134;0;0;0;0;9;0;13086;0;0;0;0
22.11.17;21:10:00;1;500;7648;0;2;0;14292;0;0;0;0;3;0;9433;0;0;0;0;4;0;11170;0;0;0;0;5;0;34959;2;0;0;0;0;0;6;0;26537;2;0;0;0;0;0;7;0;24631;0;0;0;0;8;0;24134;0;0;0;0;9;0;13086;0;0;0;0
22.11.17;21:05:00;1;689;7607;0;2;0;14292;0;0;0;0;3;0;9433;0;0;0;0;4;0;11170;0;0;0;0;5;0;34959;2;0;0;0;0;0;6;0;26537;2;0;0;0;0;0;7;0;24631;0;0;0;0;8;0;24134;0;0;0;0;9;0;13086;0;0;0;0
22.11.17;21:00:00;1;682;7554;0;2;0;14292;0;0;0;0;3;0;9433;0;0;0;0;4;0;11170;0;0;0;0;5;0;34959;2;0;0;0;0;0;6;0;26537;2;0;0;0;0;0;7;0;24631;0;0;0;0;8;0;24134;0;0;0;0;9;0;13086;0;0;0;0
22.11.17;20:55:00;1;685;7497;0;2;0;14292;0;0;0;0;3;0;9433;0;0;0;0;4;0;11170;0;0;0;0;5;0;34959;2;0;0;0;0;0;6;0;26537;2;0;0;0;0;0;7;0;24631;0;0;0;0;8;0;24134;0;0;0;0;9;0;13086;0;0;0;0
22.11.17;20:50:00;1;682;7440;0;2;0;14292;0;0;0;0;3;0;9433;0;0;0;0;4;0;11170;0;0;0;0;5;0;34959;2;0;0;0;0;0;6;0;26537;2;0;0;0;0;0;7;0;24631;0;0;0;0;8;0;24134;0;0;0;0;9;0;13086;0;0;0;0
22.11.17;20:45:00;1;729;7382;0;2;0;14292;0;0;0;0;3;0;9433;0;0;0;0;4;0;11170;0;0;0;0;5;0;34959;2;0;0;0;0;0;6;0;26537;2;0;0;0;0;0;7;0;24631;0;0;0;0;8;0;24134;0;0;0;0;9;0;13086;0;0;0;0
22.11.17;20:40:00;1;722;7322;0;2;0;14292;0;0;0;0;3;0;9433;0;0;0;0;4;0;11170;0;0;0;0;5;0;34959;2;0;0;0;0;0;6;0;26537;2;0;0;0;0;0;7;0;24631;0;0;0;0;8;0;24134;0;0;0;0;9;0;13086;0;0;0;0
22.11.17;20:35:00;1;811;7261;0;2;0;14292;0;0;0;0;3;0;9433;0;0;0;0;4;0;11170;0;0;0;0;5;0;34959;2;0;0;0;0;0;6;0;26537;2;0;0;0;0;0;7;0;24631;0;0;0;0;8;0;24134;0;0;0;0;9;0;13086;0;0;0;0
22.11.17;20:30:00;1;783;7196;0;2;0;14292;0;0;0;0;3;0;9433;0;0;0;0;4;0;11170;0;0;0;0;5;0;34959;2;0;0;0;0;0;6;0;26537;2;0;0;0;0;0;7;0;24631;0;0;0;0;8;0;24134;0;0;0;0;9;0;13086;0;0;0;0
22.11.17;20:25:00;1;857;7129;0;2;0;14292;0;0;0;0;3;0;9433;0;0;0;0;4;0;11170;0;0;0;0;5;0;34959;2;0;0;0;0;0;6;0;26537;2;0;0;0;0;0;7;0;24631;0;0;0;0;8;0;24134;0;0;0;0;9;0;13086;0;0;0;0
22.11.17;20:20:00;1;753;7057;0;2;0;14292;0;0;0;0;3;0;9433;0;0;0;0;4;0;11170;0;0;0;0;5;0;34959;2;0;0;0;0;0;6;0;26537;2;0;0;0;0;0;7;0;24631;0;0;0;0;8;0;24134;0;0;0;0;9;0;13086;0;0;0;0
22.11.17;20:15:00;1;756;6994;0;2;0;14292;0;0;0;0;3;0;9433;0;0;0;0;4;0;11170;0;0;0;0;5;0;34959;2;0;0;0;0;0;6;0;26537;2;0;0;0;0;0;7;0;24631;0;0;0;0;8;0;24134;0;0;0;0;9;0;13086;0;0;0;0
22.11.17;20:10:00;1;1147;6930;0;2;0;14292;0;0;0;0;3;0;9433;0;0;0;0;4;0;11170;0;0;0;0;5;0;34959;2;0;0;0;0;0;6;0;26537;2;0;0;0;0;0;7;0;24631;0;0;0;0;8;0;24134;0;0;0;0;9;0;13086;0;0;0;0
22.11.17;20:05:00;1;903;6845;0;2;0;14292;0;0;0;0;3;0;9433;0;0;0;0;4;0;11170;0;0;0;0;5;0;34959;2;0;0;0;0;0;6;0;26537;2;0;0;0;0;0;7;0;24631;0;0;0;0;8;0;24134;0;0;0;0;9;0;13086;0;0;0;0
22.11.17;20:00:00;1;876;6764;0;2;0;14292;0;0;0;0;3;0;9433;0;0;0;0;4;0;11170;0;0;0;0;5;0;34959;2;0;0;0;0;0;6;0;26537;2;0;0;0;0;0;7;0;24631;0;0;0;0;8;0;24134;0;0;0;0;9;0;13086;0;0;0;0
22.11.17;19:55:00;1;772;6688;0;2;0;14292;0;0;0;0;3;0;9433;0;0;0;0;4;0;11170;0;0;0;0;5;0;34959;2;0;0;0;0;0;6;0;26537;2;0;0;0;0;0;7;0;24631;0;0;0;0;8;0;24134;0;0;0;0;9;0;13086;0;0;0;0
22.11.17;19:50:00;1;785;6623;0;2;0;14292;0;0;0;0;3;0;9433;0;0;0;0;4;0;11170;0;0;0;0;5;0;34959;2;0;0;0;0;0;6;0;26537;2;0;0;0;0;0;7;0;24631;0;0;0;0;8;0;24134;0;0;0;0;9;0;13086;0;0;0;0
22.11.17;19:45:00;1;717;6558;0;2;0;14292;0;0;0;0;3;0;9433;0;0;0;0;4;0;11170;0;0;0;0;5;0;34959;2;0;0;0;0;0;6;0;26537;2;0;0;0;0;0;7;0;24631;0;0;0;0;8;0;24134;0;0;0;0;9;0;13086;0;0;0;0
22.11.17;19:40:00;1;648;6499;0;2;0;14292;0;0;0;0;3;0;9433;0;0;0;0;4;0;11170;0;0;0;0;5;0;34959;2;0;0;0;0;0;6;0;26537;2;0;0;0;0;0;7;0;24631;0;0;0;0;8;0;24134;0;0;0;0;9;0;13086;0;0;0;0
22.11.17;19:35:00;1;665;6444;0;2;0;14292;0;0;0;0;3;0;9433;0;0;0;0;4;0;11170;0;0;0;0;5;0;34959;2;0;0;0;0;0;6;0;26537;2;0;0;0;0;0;7;0;24631;0;0;0;0;8;0;24134;0;0;0;0;9;0;13086;0;0;0;0
22.11.17;19:30:00;1;698;6388;0;2;0;14292;0;0;0;0;3;0;9433;0;0;0;0;4;0;11170;0;0;0;0;5;0;34959;2;0;0;0;0;0;6;0;26537;2;0;0;0;0;0;7;0;24631;0;0;0;0;8;0;24134;0;0;0;0;9;0;13086;0;0;0;0
22.11.17;19:25:00;1;588;6328;0;2;0;14292;0;0;0;0;3;0;9433;0;0;0;0;4;0;11170;0;0;0;0;5;0;34959;2;0;0;0;0;0;6;0;26537;2;0;0;0;0;0;7;0;24631;0;0;0;0;8;0;24134;0;0;0;0;9;0;13086;0;0;0;0
22.11.17;19:20:00;1;603;6279;0;2;0;14292;0;0;0;0;3;0;9433;0;0;0;0;4;0;11170;0;0;0;0;5;0;34959;2;0;0;0;0;0;6;0;26537;2;0;0;0;0;0;7;0;24631;0;0;0;0;8;0;24134;0;0;0;0;9;0;13086;0;0;0;0
22.11.17;19:15:00;1;507;6231;0;2;0;14292;0;0;0;0;3;0;9433;0;0;0;0;4;0;11170;0;0;0;0;5;0;34959;2;0;0;0;0;0;6;0;26537;2;0;0;0;0;0;7;0;24631;0;0;0;0;8;0;24134;0;0;0;0;9;0;13086;0;0;0;0
22.11.17;19:10:00;1;502;6190;0;2;0;14292;0;0;0;0;3;0;9433;0;0;0;0;4;0;11170;0;0;0;0;5;0;34959;2;0;0;0;0;0;6;0;26537;2;0;0;0;0;0;7;0;24631;0;0;0;0;8;0;24134;0;0;0;0;9;0;13086;0;0;0;0
22.11.17;19:05:00;1;379;6148;0;2;0;14292;0;0;0;0;3;0;9433;0;0;0;0;4;0;11170;0;0;0;0;5;0;34959;2;0;0;0;0;0;6;0;26537;2;0;0;0;0;0;7;0;24631;0;0;0;0;8;0;24134;0;0;0;0;9;0;13086;0;0;0;0
22.11.17;19:00:00;1;247;6117;0;2;0;14292;0;0;0;0;3;0;9433;0;0;0;0;4;0;11170;0;0;0;0;5;0;34959;2;0;0;0;0;0;6;0;26537;2;0;0;0;0;0;7;0;24631;0;0;0;0;8;0;24134;0;0;0;0;9;0;13086;0;0;0;0
22.11.17;18:55:00;1;252;6097;0;2;0;14292;0;0;0;0;3;0;9433;0;0;0;0;4;0;11170;0;0;0;0;5;0;34959;2;0;0;0;0;0;6;0;26537;2;0;0;0;0;0;7;0;24631;0;0;0;0;8;0;24134;0;0;0;0;9;0;13086;0;0;0;0
22.11.17;18:50:00;1;248;6075;0;2;0;14292;0;0;0;0;3;0;9433;0;0;0;0;4;0;11170;0;0;0;0;5;0;34959;2;0;0;0;0;0;6;0;26537;2;0;0;0;0;0;7;0;24631;0;0;0;0;8;0;24134;0;0;0;0;9;0;13086;0;0;0;0
22.11.17;18:45:00;1;284;6055;0;2;0;14292;0;0;0;0;3;0;9433;0;0;0;0;4;0;11170;0;0;0;0;5;0;34959;2;0;0;0;0;0;6;0;26537;2;0;0;0;0;0;7;0;24631;0;0;0;0;8;0;24134;0;0;0;0;9;0;13086;0;0;0;0
22.11.17;18:40:00;1;292;6031;0;2;0;14292;0;0;0;0;3;0;9433;0;0;0;0;4;0;11170;0;0;0;0;5;0;34959;2;0;0;0;0;0;6;0;26537;2;0;0;0;0;0;7;0;24631;0;0;0;0;8;0;24134;0;0;0;0;9;0;13086;0;0;0;0
22.11.17;18:35:00;1;338;6006;0;2;0;14292;0;0;0;0;3;0;9433;0;0;0;0;4;0;11170;0;0;0;0;5;0;34959;2;0;0;0;0;0;6;0;26537;2;0;0;0;0;0;7;0;24631;0;0;0;0;8;0;24134;0;0;0;0;9;0;13086;0;0;0;0
22.11.17;18:30:00;1;874;5978;0;2;0;14292;0;0;0;0;3;0;9433;0;0;0;0;4;0;11170;0;0;0;0;5;0;34959;2;0;0;0;0;0;6;0;26537;2;0;0;0;0;0;7;0;24631;0;0;0;0;8;0;24134;0;0;0;0;9;0;13086;0;0;0;0
22.11.17;18:25:00;1;1061;5885;0;2;0;14292;0;0;0;0;3;0;9433;0;0;0;0;4;0;11170;0;0;0;0;5;0;34959;2;0;0;0;0;0;6;0;26537;2;0;0;0;0;0;7;0;24631;0;0;0;0;8;0;24134;0;0;0;0;9;0;13086;0;0;0;0
22.11.17;18:20:00;1;1023;5770;0;2;0;14292;0;0;0;0;3;0;9433;0;0;0;0;4;0;11170;0;0;0;0;5;0;34959;2;0;0;0;0;0;6;0;26537;2;0;0;0;0;0;7;0;24631;0;0;0;0;8;0;24134;0;0;0;0;9;0;13086;0;0;0;0
22.11.17;18:15:00;1;1127;5629;0;2;0;14292;0;0;0;0;3;0;9433;0;0;0;0;4;0;11170;0;0;0;0;5;0;34959;2;0;0;0;0;0;6;0;26537;2;0;0;0;0;0;7;0;24631;0;0;0;0;8;0;24134;0;0;0;0;9;0;13086;0;0;0;0
22.11.17;18:10:00;1;2007;5504;0;2;0;14292;0;0;0;0;3;0;9433;0;0;0;0;4;0;11170;0;0;0;0;5;0;34959;2;0;0;0;0;0;6;0;26537;2;0;0;0;0;0;7;0;24631;0;0;0;0;8;0;24134;0;0;0;0;9;0;13086;0;0;0;0
22.11.17;18:05:00;1;2212;5347;0;2;0;14292;0;0;0;0;3;0;9433;0;0;0;0;4;0;11170;0;0;0;0;5;0;34959;2;0;0;0;0;0;6;0;26537;2;0;0;0;0;0;7;0;24631;0;0;0;0;8;0;24134;0;0;0;0;9;0;13086;0;0;0;0
22.11.17;18:00:00;1;3718;5140;0;2;0;14292;0;0;0;0;3;0;9433;0;0;0;0;4;0;11170;0;0;0;0;5;0;34959;2;0;0;0;0;0;6;0;26537;2;0;0;0;0;0;7;0;24631;0;0;0;0;8;0;24134;0;0;0;0;9;0;13086;0;0;0;0
22.11.17;17:55:00;1;3311;4842;0;2;0;14292;0;0;0;0;3;0;9433;0;0;0;0;4;0;11170;0;0;0;0;5;0;34959;2;0;0;0;0;0;6;0;26537;2;0;0;0;0;0;7;0;24631;0;0;0;0;8;0;24134;0;0;0;0;9;0;13086;0;0;0;0
22.11.17;17:50:00;1;565;4625;0;2;0;14292;0;0;0;0;3;0;9433;0;0;0;0;4;0;11170;0;0;0;0;5;0;34959;2;0;0;0;0;0;6;0;26537;2;0;0;0;0;0;7;0;24631;0;0;0;0;8;0;24134;0;0;0;0;9;0;13086;0;0;0;0
22.11.17;17:45:00;1;508;4577;0;2;0;14292;0;0;0;0;3;0;9433;0;0;0;0;4;0;11170;0;0;0;0;5;0;34959;2;0;0;0;0;0;6;0;26537;2;0;0;0;0;0;7;0;24631;0;0;0;0;8;0;24134;0;0;0;0;9;0;13086;0;0;0;0
22.11.17;17:40:00;1;432;4534;0;2;0;14292;0;0;0;0;3;0;9433;0;0;0;0;4;0;11170;0;0;0;0;5;0;34959;2;0;0;0;0;0;6;0;26537;2;0;0;0;0;0;7;0;24631;0;0;0;0;8;0;24134;0;0;0;0;9;0;13086;0;0;0;0
22.11.17;17:35:00;1;386;4498;0;2;0;14292;0;0;0;0;3;0;9433;0;0;0;0;4;0;11170;0;0;0;0;5;0;34959;2;0;0;0;0;0;6;0;26537;2;0;0;0;0;0;7;0;24631;0;0;0;0;8;0;24134;0;0;0;0;9;0;13086;0;0;0;0
22.11.17;17:30:00;1;341;4466;0;2;0;14292;0;0;0;0;3;0;9433;0;0;0;0;4;0;11170;0;0;0;0;5;0;34959;2;0;0;0;0;0;6;0;26537;2;0;0;0;0;0;7;0;24631;0;0;0;0;8;0;24134;0;0;0;0;9;0;13086;0;0;0;0
22.11.17;17:25:00;1;269;4438;0;2;0;14292;0;0;0;0;3;0;9433;0;0;0;0;4;0;11170;0;0;0;0;5;0;34959;2;0;0;0;0;0;6;0;26537;2;0;0;0;0;0;7;0;24631;0;0;0;0;8;0;24134;0;0;0;0;9;0;13086;0;0;0;0
22.11.17;17:20:00;1;299;4416;0;2;0;14292;0;0;0;0;3;0;9433;0;0;0;0;4;0;11170;0;0;0;0;5;0;34959;2;0;0;0;0;0;6;0;26537;2;0;0;0;0;0;7;0;24631;0;0;0;0;8;0;24134;0;0;0;0;9;0;13086;0;0;0;0
22.11.17;17:15:00;1;262;4392;0;2;0;14292;0;0;0;0;3;0;9433;0;0;0;0;4;0;11170;0;0;0;0;5;0;34959;2;0;0;0;0;0;6;0;26537;2;0;0;0;0;0;7;0;24631;0;0;0;0;8;0;24134;0;0;0;0;9;0;13086;0;0;0;0
22.11.17;17:10:00;1;251;4370;0;2;0;14292;0;0;0;0;3;0;9433;0;0;0;0;4;0;11170;0;0;0;0;5;0;34959;2;0;0;0;0;0;6;0;26537;2;0;0;0;0;0;7;0;24631;0;0;0;0;8;0;24134;0;0;0;0;9;0;13086;0;0;0;0
22.11.17;17:05:00;1;245;4349;0;2;0;14292;0;0;0;0;3;0;9433;0;0;0;0;4;0;11170;0;0;0;0;5;0;34959;2;0;0;0;0;0;6;0;26537;2;0;0;0;0;0;7;0;24631;0;0;0;0;8;0;24134;0;0;0;0;9;0;13086;0;0;0;0
22.11.17;17:00:00;1;244;4328;0;2;0;14292;0;0;0;0;3;0;9433;0;0;0;0;4;0;11170;0;0;0;0;5;0;34959;2;0;0;0;0;0;6;0;26537;2;0;0;0;0;0;7;0;24631;0;0;0;0;8;0;24134;0;0;0;0;9;0;13086;0;0;0;0
22.11.17;16:55:00;1;249;4308;0;2;0;14292;0;0;0;0;3;0;9433;0;0;41;2;4;0;11170;0;0;0;0;5;0;34959;2;0;0;0;0;0;6;0;26537;2;0;0;0;0;0;7;0;24631;0;0;0;0;8;0;24134;0;0;0;0;9;0;13086;0;0;0;0
22.11.17;16:50:00;1;249;4287;0;2;0;14292;0;0;237;12;3;0;9433;6;0;303;17;4;0;11170;0;0;26;6;5;0;34959;2;0;0;0;0;0;6;0;26537;2;0;0;0;0;0;7;0;24631;0;0;0;0;8;0;24134;0;0;0;0;9;0;13086;0;0;0;0
22.11.17;16:45:00;1;234;4268;0;2;0;14292;6;0;321;15;3;0;9433;6;0;388;17;4;0;11170;2;0;90;15;5;0;34959;2;0;0;0;0;0;6;0;26537;2;0;0;0;0;0;7;0;24631;0;0;0;0;8;0;24134;0;0;0;0;9;0;13086;0;0;0;0
22.11.17;16:40:00;1;234;4248;0;2;0;14292;6;0;367;16;3;0;9433;6;3;424;18;4;0;11170;1;0;157;16;5;0;34959;23;0;0;384;485;26;6;0;26537;23;7;1;310;353;25;7;0;24631;2;0;314;20;8;0;24134;11;0;311;19;9;0;13086;2;0;320;15
22.11.17;16:35:00;1;198;4229;0;2;0;14292;6;0;390;16;3;0;9433;6;3;471;18;4;0;11170;1;0;191;16;5;4;34959;1;0;0;406;631;27;6;0;26537;23;7;2;336;556;26;7;0;24631;6;0;398;20;8;0;24134;6;0;399;20;9;0;13086;6;0;405;15
22.11.17;16:30:00;1;189;4212;0;2;0;14292;6;0;413;17;3;1;9433;6;4;504;18;4;0;11170;3;0;214;17;5;52;34958;1;9;11;393;620;28;6;39;26537;1;20;24;475;452;27;7;0;24631;6;2;450;21;8;2;24134;6;4;439;20;9;1;13086;6;2;481;16
22.11.17;16:25:00;1;241;4196;0;2;46;14292;4;77;358;17;3;3;9433;4;9;516;19;4;6;11170;3;6;200;17;5;114;34953;4;37;32;377;596;28;6;75;26534;4;46;49;455;429;27;7;0;24631;6;0;503;21;8;6;24134;6;10;478;21;9;2;13086;6;6;525;16
22.11.17;16:20:00;1;283;4175;0;2;62;14288;4;93;362;18;3;15;9433;3;30;478;19;4;6;11170;3;6;198;18;5;129;34943;4;42;38;377;596;28;6;86;26527;4;56;60;455;429;27;7;60;24631;4;73;386;22;8;33;24133;6;62;406;21;9;2;13086;6;5;536;16
22.11.17;16:15:00;1;282;4153;0;2;87;14283;4;121;363;18;3;17;9431;6;29;488;19;4;14;11169;3;15;198;18;5;160;34933;4;58;53;377;596;28;6;105;26520;4;48;52;455;429;27;7;72;24625;4;100;397;22;8;57;24131;4;97;410;21;9;4;13086;4;9;537;17
22.11.17;16:10:00;1;253;4129;0;2;115;14276;4;149;366;19;3;62;9430;4;98;443;20;4;52;11168;3;54;197;18;5;197;34919;4;89;70;377;596;28;6;127;26511;4;48;52;455;429;27;7;97;24619;4;134;406;22;8;90;24126;4;125;401;22;9;18;13085;3;32;499;17
22.11.17;16:05:00;1;255;4107;0;2;149;14266;4;185;370;19;3;84;9425;4;121;455;20;4;77;11163;3;80;198;18;5;248;34902;4;104;94;378;597;29;6;161;26500;4;84;83;455;429;27;7;141;24611;4;173;405;23;8;128;24119;4;162;417;22;9;24;13084;6;34;527;17
22.11.17;16:00:00;1;255;4085;0;2;227;14254;4;269;386;20;3;114;9418;4;151;466;21;4;119;11157;5;124;224;18;5;298;34881;4;136;113;377;596;29;6;199;26487;4;108;107;455;429;27;7;206;24600;4;240;430;23;8;176;24108;4;213;426;22;9;75;13082;4;106;480;18
22.11.17;15:55:00;1;269;4064;0;2;717;14236;4;773;395;21;3;345;9408;4;391;442;21;4;201;11147;5;210;220;19;5;389;34856;4;177;154;393;595;29;6;335;26470;4;137;163;538;534;27;7;262;24582;4;305;462;23;8;227;24094;4;268;453;23;9;93;13075;4;124;492;19
22.11.17;15:50:00;1;339;4041;0;2;1083;14178;4;1151;396;21;3;584;9381;4;636;443;22;4;369;11130;5;384;200;19;5;972;34821;4;461;417;430;704;29;6;790;26439;4;368;385;607;574;28;7;518;24561;4;568;468;24;8;301;24075;4;343;485;23;9;111;13068;4;146;514;19
22.11.17;15:45:00;1;288;4015;0;2;723;14088;4;774;380;21;3;351;9333;4;398;484;22;4;279;11100;5;290;209;19;5;816;34738;4;407;338;407;664;29;6;610;26372;4;299;335;517;566;28;7;783;24519;4;834;468;24;8;312;24050;4;367;508;24;9;111;13058;4;143;510;19
22.11.17;15:40:00;1;305;3991;0;2;342;14029;4;388;404;21;3;182;9304;4;224;475;22;4;182;11077;5;190;237;19;5;483;34675;4;232;191;401;606;29;6;339;26325;4;153;183;464;549;28;7;425;24454;4;466;491;25;8;300;24024;4;350;486;24;9;105;13049;4;139;505;20
22.11.17;15:35:00;1;360;3965;0;2;445;14000;4;492;384;22;3;236;9289;4;273;412;22;4;201;11061;5;210;237;20;5;581;34635;4;282;230;408;629;30;6;436;26297;4;224;242;569;549;28;7;507;24418;4;549;483;25;8;359;23999;4;407;437;25;9;108;13040;4;143;519;20
22.11.17;15:30:00;1;354;3935;0;2;397;13964;4;443;381;23;3;211;9270;4;250;413;22;4;192;11045;5;200;233;20;5;560;34587;4;270;231;404;624;30;6;430;26260;4;192;199;567;555;28;7;482;24377;4;526;458;26;8;381;23969;4;425;410;25;9;106;13031;4;135;430;21
22.11.17;15:25:00;1;362;3905;0;2;459;13931;4;505;376;24;3;241;9252;4;282;418;23;4;214;11029;5;223;235;20;5;637;34540;4;305;266;398;625;30;6;482;26224;4;252;257;564;552;28;7;538;24337;4;582;464;26;8;463;23937;4;503;416;26;9;117;13022;4;142;360;22
22.11.17;15:20:00;1;366;3876;0;2;709;13892;4;766;382;25;3;377;9232;4;422;422;24;4;284;11011;5;296;243;21;5;963;34485;4;481;402;412;645;30;6;723;26183;4;375;378;579;554;28;7;818;24292;4;874;473;27;8;829;23899;4;883;433;26;9;195;13013;4;224;350;22
22.11.17;15:15:00;1;347;3847;0;2;890;13834;4;950;379;26;3;476;9201;4;523;414;24;4;331;10987;5;345;246;21;5;1227;34402;4;628;516;415;662;31;6;923;26120;4;462;457;582;556;29;7;1209;24224;4;1282;475;27;8;1122;23831;4;1188;455;27;9;346;12997;4;381;355;23
22.11.17;15:10:00;1;351;3817;0;2;1239;13760;4;1313;384;27;3;676;9161;4;731;426;25;4;417;10960;5;434;247;21;5;1698;34297;4;870;729;422;676;31;6;1280;26042;4;656;647;591;568;29;7;1752;24124;4;1843;469;28;8;1655;23736;4;1743;467;27;9;589;12968;4;634;380;24
22.11.17;15:05:00;1;366;3788;0;2;1677;13657;4;1769;388;28;3;925;9105;4;989;431;25;4;498;10925;5;518;241;21;5;2306;34152;4;1218;996;428;691;31;6;1738;25932;4;895;866;595;573;29;7;2451;23978;4;2577;473;28;8;2390;23599;4;2510;473;28;9;978;12920;4;1040;409;25
22.11.17;15:00:00;1;351;3758;0;2;1725;13517;4;1820;389;29;3;966;9028;4;1031;426;26;4;538;10884;5;560;236;22;5;2514;33954;4;1338;1099;426;686;31;6;1887;25781;4;977;945;592;566;29;7;2489;23777;4;2613;473;28;8;2399;23403;4;2516;467;28;9;1066;12840;4;1131;436;26
22.11.17;14:55:00;1;389;3728;0;2;2084;13374;4;2194;401;29;3;1154;8948;4;1224;433;26;4;629;10839;5;655;232;22;5;3072;33742;4;1644;1337;429;700;32;6;2350;25622;4;1237;1208;595;574;29;7;3146;23569;4;3289;470;29;8;3076;23203;4;3216;471;28;9;1465;12751;4;1550;471;27
22.11.17;14:50:00;1;409;3695;0;2;2029;13200;4;2135;404;29;3;1103;8851;4;1173;451;27;4;647;10787;5;674;234;22;5;2953;33484;4;1576;1298;425;689;32;6;2249;25426;4;1153;1122;600;569;29;7;2986;23307;4;3122;471;29;8;2923;22948;4;3061;470;29;9;1476;12629;4;1565;502;28
22.11.17;14:45:00;1;421;3660;0;2;1835;13031;4;1932;398;30;3;1073;8759;4;1146;484;27;4;642;10733;5;669;241;23;5;2778;33242;4;1480;1218;423;683;32;6;2076;25242;4;1077;1042;595;564;29;7;2571;23059;4;2692;469;29;8;2499;22704;4;2622;460;29;9;1338;12506;4;1420;506;28
22.11.17;14:40:00;1;398;3625;0;2;2078;12877;4;2188;393;30;3;1270;8670;4;1351;491;27;4;715;10680;5;745;244;23;5;3203;33019;4;1728;1408;422;681;32;6;2392;25072;4;1231;1202;590;562;29;7;2743;22846;4;2878;469;30;8;2034;22499;4;2134;379;24;9;1345;12397;4;1431;505;28
22.11.17;14:35:00;1;364;3592;0;2;2129;12706;4;2246;398;31;3;1328;8565;4;1413;509;28;4;743;10620;5;774;245;23;5;3261;32750;4;1743;1432;424;679;32;6;2457;24870;4;1232;1197;589;568;29;7;3062;22621;4;3212;458;30;8;3050;22285;4;3198;466;29;9;1659;12285;4;1759;516;29
22.11.17;14:30:00;1;366;3561;0;2;2626;12525;4;2758;397;31;3;1674;8453;4;1771;515;28;4;856;10558;5;892;244;23;5;4006;32478;4;2180;1771;425;680;32;6;3037;24663;4;1565;1510;591;566;29;7;3718;22365;4;3889;463;30;8;3658;22030;4;3830;467;30;9;1995;12148;4;2110;516;29
22.11.17;14:25:00;1;404;3531;0;2;2252;12309;4;2369;395;31;3;1431;8315;4;1528;521;28;4;850;10487;5;885;250;24;5;3577;32141;4;1931;1569;422;684;33;6;2677;24408;4;1389;1358;592;560;30;7;3112;22058;4;3265;462;30;8;3044;21728;4;3195;473;30;9;1660;11982;4;1760;512;29
22.11.17;14:20:00;1;367;3498;0;2;2195;12122;4;2313;392;31;3;1414;8196;4;1504;512;28;4;852;10417;5;887;246;24;5;3575;31860;4;1928;1573;420;677;33;6;2692;24195;4;1384;1352;584;567;30;7;3170;21793;4;3317;463;30;8;3105;21471;4;3254;473;30;9;1690;11841;4;1791;514;29
22.11.17;14:15:00;1;360;3467;0;2;2373;11941;4;2500;395;32;3;1530;8079;4;1622;504;29;4;902;10346;5;939;239;24;5;3919;31566;4;2129;1721;421;677;33;6;2942;23972;4;1518;1462;587;564;30;7;3412;21528;4;3571;454;31;8;3357;21209;4;3518;465;30;9;1852;11700;4;1958;519;30
22.11.17;14:10:00;1;387;3437;0;2;2512;11744;4;2645;397;32;3;1628;7952;4;1725;508;29;4;970;10271;5;1010;239;25;5;4204;31234;4;2292;1856;422;669;33;6;3184;23722;4;1633;1590;587;559;30;7;3633;21246;4;3814;463;31;8;3582;20931;4;3753;461;30;9;1960;11544;4;2075;510;30